Regional Weather Roundup
Issued by NWS

Home | Current Version | Previous Version | Text Only | Print | Product List | Glossary On
Versions: 1 2 3 4 5 6 7 8 9 10 11 12 13 14 15 16 17 18 19 20 21 22 23 24 25 26 27 28 29 30 31 32 33 34 35 36 37 38 39 40 41 42 43 44 45 46 47 48 49 50
000
ASUS43 KLMK 041810
RWRKY
KENTUCKY REGIONAL WEATHER ROUNDUP
NATIONAL WEATHER SERVICE LOUISVILLE KY
200 PM EDT MON MAY 04 2015

NOTE "FAIR" INDICATES FEW OR NO CLOUDS BELOW 12,000 FEET
WITH NO SIGNIFICANT WEATHER AND/OR OBSTRUCTIONS TO VISIBILITY.

KYZ001>023-026-027-061>063-070>075-041900-
WESTERN AND SOUTH CENTRAL KENTUCKY

CITY           SKY/WX    TMP DP  RH WIND       PRES   REMARKS
PADUCAH        FAIR      83  56  39 SW15      30.18F
HENDERSON      MOSUNNY   84  55  37 SW16G23   30.16F
OWENSBORO      MOSUNNY   83  64  52 SW10G17   30.19F
HOPKINSVILLE   MOSUNNY   80  59  48 SW10      30.21F
BOWLING GREEN  MOSUNNY   81  57  43 SW8       30.23F
GLASGOW        PTSUNNY   79  56  45 W9        30.23F
$$

KYZ024-025-028>034-038-045-046-053-041900-
NORTH CENTRAL KENTUCKY

CITY           SKY/WX    TMP DP  RH WIND       PRES   REMARKS
LOUISVILLE/SDF PTSUNNY   82  55  39 SW12G20   30.18F
LOUISVILLE/LOU MOSUNNY   81  56  42 SW10G16   30.19F
FORT KNOX      MOSUNNY   82  57  41 S14       30.19F
$$

KYZ035>037-039>044-047>052-055>060-089>105-041900-
NORTHEAST KENTUCKY

CITY           SKY/WX    TMP DP  RH WIND       PRES   REMARKS
LEXINGTON      SUNNY     79  55  43 SW12      30.23F
COVINGTON      PTSUNNY   79  54  41 SW14G20   30.18F
FRANKFORT      MOSUNNY   80  54  40 W13G18    30.21F
$$

KYZ054-064>069-076>088-106>120-041900-
SOUTHEAST KENTUCKY

CITY           SKY/WX    TMP DP  RH WIND       PRES   REMARKS
JACKSON        MOSUNNY   79  49  34 SW8       30.27F
LONDON         MOSUNNY   79  44  28 S3        30.27F
SOMERSET       MOSUNNY   77  50  38 W12       30.28F
MIDDLESBORO    CLOUDY    76  51  41 SW5       30.28F
MONTICELLO     CLEAR     80  52  37 SW13      30.29F
$$




USA.gov is the U.S. government's official web portal to all federal, state and local government web resources and services.